Time,TemperatureF,DewpointF,PressureIn,WindDirection,WindDirectionDegrees,WindSpeedMPH,WindSpeedGustMPH,Humidity,HourlyPrecipIn,Conditions,Clouds,dailyrainin,SoftwareType,DateUTC
2013-07-28 00:01:00,79.7,65.5,30.03,North,0,0.0,0.0,62,0.00,,SCT120,0.00,VWS V14.01,2013-07-28 04:01:00,
2013-07-28 00:02:00,79.7,66.0,30.03,North,0,0.0,0.0,63,0.00,,SCT120,0.00,VWS V14.01,2013-07-28 04:02:00,
2013-07-28 00:07:00,79.3,66.1,30.03,North,0,0.0,0.0,64,0.00,,SCT120,0.00,VWS V14.01,2013-07-28 04:07:00,
2013-07-28 00:12:00,79.7,66.5,30.03,North,0,0.0,0.0,64,0.00,,SCT120,0.00,VWS V14.01,2013-07-28 04:12:00,
2013-07-28 00:17:00,79.9,66.2,30.03,North,0,0.0,0.0,63,0.00,,SCT120,0.00,VWS V14.01,2013-07-28 04:17:00,
2013-07-28 00:22:00,79.7,65.5,30.03,North,0,0.0,0.0,62,0.00,,SCT120,0.00,VWS V14.01,2013-07-28 04:22:00,
2013-07-28 00:27:00,79.5,65.8,30.03,North,0,0.0,0.0,63,0.00,,SCT120,0.00,VWS V14.01,2013-07-28 04:27:00,
2013-07-28 00:32:00,79.2,65.5,30.03,North,0,0.0,0.0,63,0.00,,SCT120,0.00,VWS V14.01,2013-07-28 04:32:00,
2013-07-28 00:37:00,79.2,66.4,30.03,North,0,0.0,0.0,65,0.00,,SCT120,0.00,VWS V14.01,2013-07-28 04:37:00,
2013-07-28 00:42:00,78.8,66.5,30.03,North,0,0.0,0.0,66,0.00,,SCT120,0.00,VWS V14.01,2013-07-28 04:42:00,
2013-07-28 00:47:00,78.6,66.8,30.03,North,0,0.0,0.0,67,0.00,,SCT120,0.00,VWS V14.01,2013-07-28 04:47:00,
2013-07-28 00:52:00,78.4,66.6,30.03,North,0,0.0,0.0,67,0.00,,SCT120,0.00,VWS V14.01,2013-07-28 04:52:00,
2013-07-28 00:57:00,78.4,67.0,30.03,North,0,0.0,0.0,68,0.00,,SCT120,0.00,VWS V14.01,2013-07-28 04:57:00,
2013-07-28 01:02:00,78.3,66.8,30.03,North,0,0.0,0.0,68,0.00,,SCT120,0.00,VWS V14.01,2013-07-28 05:02:00,
2013-07-28 01:07:00,78.3,66.8,30.03,North,0,0.0,0.0,68,0.00,,SCT120,0.00,VWS V14.01,2013-07-28 05:07:00,
2013-07-28 01:12:00,78.3,66.8,30.00,North,0,0.0,0.0,68,0.00,,SCT120,0.00,VWS V14.01,2013-07-28 05:12:00,
2013-07-28 01:17:00,78.4,67.0,30.00,North,0,0.0,0.0,68,0.00,,SCT120,0.00,VWS V14.01,2013-07-28 05:17:00,
2013-07-28 01:22:00,78.6,67.6,30.00,North,0,0.0,0.0,69,0.00,,SCT120,0.00,VWS V14.01,2013-07-28 05:22:00,
2013-07-28 01:27:00,78.4,67.0,30.00,North,0,0.0,0.0,68,0.00,,SCT120,0.00,VWS V14.01,2013-07-28 05:27:00,
2013-07-28 01:32:00,78.4,67.0,30.00,North,0,0.0,0.0,68,0.00,,SCT120,0.00,VWS V14.01,2013-07-28 05:32:00,
2013-07-28 01:37:00,78.1,66.7,30.00,North,0,0.0,0.0,68,0.00,,SCT120,0.00,VWS V14.01,2013-07-28 05:37:00,
2013-07-28 01:42:00,77.7,66.3,30.00,North,0,0.0,0.0,68,0.00,,SCT120,0.00,VWS V14.01,2013-07-28 05:42:00,
2013-07-28 01:47:00,77.5,66.2,30.00,North,0,0.0,0.0,68,0.00,,SCT120,0.00,VWS V14.01,2013-07-28 05:47:00,
2013-07-28 01:52:00,77.4,66.4,30.00,North,0,0.0,0.0,69,0.00,,SCT120,0.00,VWS V14.01,2013-07-28 05:52:00,
2013-07-28 01:57:00,77.4,66.4,30.00,North,0,0.0,0.0,69,0.00,,SCT120,0.00,VWS V14.01,2013-07-28 05:57:00,
2013-07-28 02:02:00,77.4,66.8,30.00,North,0,0.0,0.0,70,0.00,,SCT120,0.00,VWS V14.01,2013-07-28 06:02:00,
2013-07-28 02:07:00,77.2,66.7,30.00,North,0,0.0,0.0,70,0.00,,SCT120,0.00,VWS V14.01,2013-07-28 06:07:00,
2013-07-28 02:12:00,77.2,67.1,30.00,North,0,0.0,0.0,71,0.00,,SCT120,0.00,VWS V14.01,2013-07-28 06:12:00,
2013-07-28 02:17:00,77.0,66.5,30.00,North,0,0.0,0.0,70,0.00,,SCT120,0.00,VWS V14.01,2013-07-28 06:17:00,
2013-07-28 02:22:00,77.0,66.5,30.00,North,0,0.0,0.0,70,0.00,,SCT120,0.00,VWS V14.01,2013-07-28 06:22:00,
2013-07-28 02:27:00,77.0,66.9,30.00,North,0,0.0,0.0,71,0.00,,SCT120,0.00,VWS V14.01,2013-07-28 06:27:00,
2013-07-28 02:32:00,76.8,67.1,30.00,North,0,0.0,0.0,72,0.00,,SCT120,0.00,VWS V14.01,2013-07-28 06:32:00,
2013-07-28 02:37:00,77.0,66.9,30.00,North,0,0.0,0.0,71,0.00,,SCT120,0.00,VWS V14.01,2013-07-28 06:37:00,
2013-07-28 02:42:00,76.8,67.1,30.00,North,0,0.0,0.0,72,0.00,,SCT120,0.00,VWS V14.01,2013-07-28 06:42:00,
2013-07-28 02:47:00,76.6,66.9,30.00,North,0,0.0,0.0,72,0.00,,SCT120,0.00,VWS V14.01,2013-07-28 06:47:00,
2013-07-28 02:52:00,76.6,66.9,30.00,North,0,0.0,0.0,72,0.00,,SCT120,0.00,VWS V14.01,2013-07-28 06:52:00,
2013-07-28 02:57:00,76.5,67.2,30.00,North,0,0.0,0.0,73,0.00,,SCT120,0.00,VWS V14.01,2013-07-28 06:57:00,
2013-07-28 03:02:00,76.3,67.0,30.00,North,0,0.0,0.0,73,0.00,,SCT120,0.00,VWS V14.01,2013-07-28 07:02:00,
2013-07-28 03:07:00,76.3,67.0,30.00,North,0,0.0,0.0,73,0.00,,SCT120,0.00,VWS V14.01,2013-07-28 07:07:00,
2013-07-28 03:12:00,76.3,67.4,30.00,North,0,0.0,0.0,74,0.00,,SCT120,0.00,VWS V14.01,2013-07-28 07:12:00,
2013-07-28 03:17:00,76.5,67.6,30.00,North,0,0.0,0.0,74,0.00,,SCT120,0.00,VWS V14.01,2013-07-28 07:17:00,
2013-07-28 03:22:00,76.6,68.1,30.00,North,0,0.0,0.0,75,0.00,,SCT120,0.00,VWS V14.01,2013-07-28 07:22:00,
2013-07-28 03:27:00,76.6,68.1,30.00,North,0,0.0,0.0,75,0.00,,SCT120,0.00,VWS V14.01,2013-07-28 07:27:00,
2013-07-28 03:32:00,76.5,67.6,30.00,North,0,0.0,0.0,74,0.00,,SCT120,0.00,VWS V14.01,2013-07-28 07:32:00,
2013-07-28 03:37:00,76.1,67.2,30.00,North,0,0.0,0.0,74,0.00,,SCT120,0.00,VWS V14.01,2013-07-28 07:37:00,
2013-07-28 03:42:00,76.1,67.2,30.00,North,0,0.0,0.0,74,0.00,,SCT120,0.00,VWS V14.01,2013-07-28 07:42:00,
2013-07-28 03:47:00,75.9,67.4,30.00,North,0,0.0,0.0,75,0.00,,SCT120,0.00,VWS V14.01,2013-07-28 07:47:00,
2013-07-28 03:52:00,75.7,67.3,30.00,North,0,0.0,0.0,75,0.00,,SCT120,0.00,VWS V14.01,2013-07-28 07:52:00,
2013-07-28 03:57:00,75.9,67.4,30.00,North,0,0.0,0.0,75,0.00,,SCT120,0.00,VWS V14.01,2013-07-28 07:57:00,
2013-07-28 04:02:00,76.3,68.2,30.00,North,0,0.0,0.0,76,0.00,,SCT120,0.00,VWS V14.01,2013-07-28 08:02:00,
2013-07-28 04:07:00,76.1,68.0,30.00,North,0,0.0,0.0,76,0.00,,SCT120,0.00,VWS V14.01,2013-07-28 08:07:00,
2013-07-28 04:12:00,75.9,67.4,30.00,North,0,0.0,0.0,75,0.00,,SCT120,0.00,VWS V14.01,2013-07-28 08:12:00,
2013-07-28 04:17:00,76.1,67.6,30.00,North,0,0.0,0.0,75,0.00,,SCT120,0.00,VWS V14.01,2013-07-28 08:17:00,
2013-07-28 04:22:00,75.7,67.3,30.00,North,0,0.0,0.0,75,0.00,,SCT120,0.00,VWS V14.01,2013-07-28 08:22:00,
2013-07-28 04:27:00,75.6,67.1,30.00,North,0,0.0,0.0,75,0.00,,SCT120,0.00,VWS V14.01,2013-07-28 08:27:00,
2013-07-28 04:32:00,75.4,66.9,30.00,North,0,0.0,0.0,75,0.00,,SCT120,0.00,VWS V14.01,2013-07-28 08:32:00,
2013-07-28 04:37:00,75.6,67.5,30.00,North,0,0.0,0.0,76,0.00,,SCT120,0.00,VWS V14.01,2013-07-28 08:37:00,
2013-07-28 04:42:00,75.7,67.6,30.00,North,0,0.0,0.0,76,0.00,,SCT120,0.00,VWS V14.01,2013-07-28 08:42:00,
2013-07-28 04:47:00,75.7,67.6,30.00,North,0,0.0,0.0,76,0.00,,SCT120,0.00,VWS V14.01,2013-07-28 08:47:00,
2013-07-28 04:52:00,75.6,67.5,30.00,North,0,0.0,0.0,76,0.00,,SCT120,0.00,VWS V14.01,2013-07-28 08:52:00,
2013-07-28 04:57:00,75.6,67.5,30.00,North,0,0.0,0.0,76,0.00,,SCT120,0.00,VWS V14.01,2013-07-28 08:57:00,
2013-07-28 05:02:00,75.4,67.3,30.00,North,0,0.0,0.0,76,0.00,,SCT120,0.00,VWS V14.01,2013-07-28 09:02:00,
2013-07-28 05:07:00,75.4,67.3,30.00,North,0,0.0,0.0,76,0.00,,SCT120,0.00,VWS V14.01,2013-07-28 09:07:00,
2013-07-28 05:12:00,75.4,67.7,29.97,North,0,0.0,0.0,77,0.00,,SCT120,0.00,VWS V14.01,2013-07-28 09:12:00,
2013-07-28 05:17:00,75.4,67.7,29.97,North,0,0.0,0.0,77,0.00,,SCT120,0.00,VWS V14.01,2013-07-28 09:17:00,
2013-07-28 05:22:00,75.6,67.8,29.97,North,0,0.0,0.0,77,0.00,,SCT120,0.00,VWS V14.01,2013-07-28 09:22:00,
2013-07-28 05:27:00,75.7,68.0,30.00,North,0,0.0,0.0,77,0.00,,SCT120,0.00,VWS V14.01,2013-07-28 09:27:00,
2013-07-28 05:32:00,75.7,68.0,30.00,North,0,0.0,0.0,77,0.00,,SCT120,0.00,VWS V14.01,2013-07-28 09:32:00,
2013-07-28 05:37:00,75.4,67.7,30.00,North,0,0.0,0.0,77,0.00,,SCT120,0.00,VWS V14.01,2013-07-28 09:37:00,
2013-07-28 05:42:00,75.0,67.3,30.00,North,0,0.0,0.0,77,0.00,,SCT120,0.00,VWS V14.01,2013-07-28 09:42:00,
2013-07-28 05:47:00,75.0,67.3,30.00,North,0,0.0,0.0,77,0.00,,SCT120,0.00,VWS V14.01,2013-07-28 09:47:00,
2013-07-28 05:52:00,75.0,67.3,30.00,North,0,0.0,0.0,77,0.00,,SCT120,0.00,VWS V14.01,2013-07-28 09:52:00,
2013-07-28 05:57:00,75.2,67.5,30.00,North,0,0.0,0.0,77,0.00,,SCT120,0.00,VWS V14.01,2013-07-28 09:57:00,
2013-07-28 06:02:00,75.2,67.5,30.00,North,0,0.0,0.0,77,0.00,,SCT120,0.00,VWS V14.01,2013-07-28 10:02:00,
2013-07-28 06:07:00,75.0,67.7,30.00,North,0,0.0,0.0,78,0.00,,SCT120,0.00,VWS V14.01,2013-07-28 10:07:00,
2013-07-28 06:12:00,75.0,67.7,30.00,North,0,0.0,0.0,78,0.00,,SCT120,0.00,VWS V14.01,2013-07-28 10:12:00,
2013-07-28 06:17:00,75.0,67.7,30.00,North,0,0.0,0.0,78,0.00,,SCT120,0.00,VWS V14.01,2013-07-28 10:17:00,
2013-07-28 06:22:00,75.2,67.9,30.00,North,0,0.0,0.0,78,0.00,,SCT120,0.00,VWS V14.01,2013-07-28 10:22:00,
2013-07-28 06:27:00,75.2,67.9,30.00,North,0,0.0,0.0,78,0.00,,SCT120,0.00,VWS V14.01,2013-07-28 10:27:00,
2013-07-28 06:32:00,75.2,68.2,30.00,North,0,0.0,0.0,79,0.00,,SCT120,0.00,VWS V14.01,2013-07-28 10:32:00,
2013-07-28 06:37:00,75.4,68.4,30.00,North,0,0.0,0.0,79,0.00,,SCT120,0.00,VWS V14.01,2013-07-28 10:37:00,
2013-07-28 06:42:00,75.6,68.6,30.03,North,0,0.0,0.0,79,0.00,,SCT120,0.00,VWS V14.01,2013-07-28 10:42:00,
2013-07-28 06:47:00,75.9,68.9,30.03,North,0,0.0,0.0,79,0.00,,SCT120,0.00,VWS V14.01,2013-07-28 10:47:00,
2013-07-28 06:52:00,76.3,69.3,30.03,North,0,0.0,0.0,79,0.00,,SCT120,0.00,VWS V14.01,2013-07-28 10:52:00,
2013-07-28 06:57:00,76.5,69.5,30.03,North,0,0.0,0.0,79,0.00,,SCT120,0.00,VWS V14.01,2013-07-28 10:57:00,
2013-07-28 07:02:00,76.8,70.2,30.03,North,0,0.0,0.0,80,0.00,,SCT120,0.00,VWS V14.01,2013-07-28 11:02:00,
2013-07-28 07:07:00,77.2,70.2,30.03,North,0,0.0,0.0,79,0.00,,SCT120,0.00,VWS V14.01,2013-07-28 11:07:00,
2013-07-28 07:12:00,77.5,70.5,30.00,North,0,0.0,0.0,79,0.00,,SCT120,0.00,VWS V14.01,2013-07-28 11:12:00,
2013-07-28 07:17:00,77.5,70.5,30.00,North,0,0.0,0.0,79,0.00,,SCT120,0.00,VWS V14.01,2013-07-28 11:17:00,
2013-07-28 07:22:00,78.1,71.0,30.00,North,0,0.0,0.0,79,0.00,,SCT120,0.00,VWS V14.01,2013-07-28 11:22:00,
2013-07-28 07:27:00,78.4,71.4,30.03,North,0,0.0,0.0,79,0.00,,SCT120,0.00,VWS V14.01,2013-07-28 11:27:00,
2013-07-28 07:32:00,78.8,71.4,30.03,North,0,0.0,0.0,78,0.00,,SCT120,0.00,VWS V14.01,2013-07-28 11:32:00,
2013-07-28 07:37:00,79.2,71.7,30.03,North,0,0.0,0.0,78,0.00,,SCT120,0.00,VWS V14.01,2013-07-28 11:37:00,
2013-07-28 07:42:00,79.5,71.7,30.03,North,0,0.0,0.0,77,0.00,,SCT120,0.00,VWS V14.01,2013-07-28 11:42:00,
2013-07-28 07:47:00,79.9,72.0,30.03,North,0,0.0,0.0,77,0.00,,SCT120,0.00,VWS V14.01,2013-07-28 11:47:00,
2013-07-28 07:52:00,80.1,72.2,30.03,North,0,0.0,0.0,77,0.00,,SCT120,0.00,VWS V14.01,2013-07-28 11:52:00,
2013-07-28 07:57:00,80.4,72.2,30.03,North,0,0.0,0.0,76,0.00,,SCT120,0.00,VWS V14.01,2013-07-28 11:57:00,
2013-07-28 08:02:00,80.6,71.9,30.03,North,0,0.0,0.0,75,0.00,,SCT120,0.00,VWS V14.01,2013-07-28 12:02:00,
2013-07-28 08:07:00,80.8,71.7,30.03,North,0,0.0,0.0,74,0.00,,SCT120,0.00,VWS V14.01,2013-07-28 12:07:00,
2013-07-28 08:12:00,80.6,71.2,30.03,North,0,0.0,0.0,73,0.00,,SCT120,0.00,VWS V14.01,2013-07-28 12:12:00,
2013-07-28 08:17:00,80.8,71.3,30.03,North,0,0.0,0.0,73,0.00,,SCT120,0.00,VWS V14.01,2013-07-28 12:17:00,
2013-07-28 08:22:00,80.8,70.5,30.03,North,0,0.0,0.0,71,0.00,,SCT120,0.00,VWS V14.01,2013-07-28 12:22:00,
2013-07-28 08:27:00,80.8,70.5,30.03,North,0,0.0,0.0,71,0.00,,SCT120,0.00,VWS V14.01,2013-07-28 12:27:00,
2013-07-28 08:32:00,80.8,70.1,30.03,North,0,0.0,0.0,70,0.00,,SCT120,0.00,VWS V14.01,2013-07-28 12:32:00,
2013-07-28 08:37:00,80.8,70.1,30.03,North,0,0.0,0.0,70,0.00,,SCT120,0.00,VWS V14.01,2013-07-28 12:37:00,
2013-07-28 08:42:00,81.3,70.2,30.03,North,0,0.0,0.0,69,0.00,,SCT120,0.00,VWS V14.01,2013-07-28 12:42:00,
2013-07-28 08:47:00,81.9,70.3,30.03,North,0,0.0,0.0,68,0.00,,SCT120,0.00,VWS V14.01,2013-07-28 12:47:00,
2013-07-28 08:52:00,82.0,69.1,30.03,North,0,0.0,0.0,65,0.00,,SCT120,0.00,VWS V14.01,2013-07-28 12:52:00,
2013-07-28 08:57:00,82.8,68.4,30.03,North,0,0.0,0.0,62,0.00,,SCT120,0.00,VWS V14.01,2013-07-28 12:57:00,
2013-07-28 09:02:00,83.5,68.2,30.03,North,0,0.0,0.0,60,0.00,,SCT120,0.00,VWS V14.01,2013-07-28 13:02:00,
2013-07-28 09:07:00,83.8,66.0,30.03,North,0,0.0,0.0,55,0.00,,SCT120,0.00,VWS V14.01,2013-07-28 13:07:00,
2013-07-28 09:12:00,84.2,65.8,30.03,North,0,0.0,0.0,54,0.00,,SCT120,0.00,VWS V14.01,2013-07-28 13:12:00,
2013-07-28 09:17:00,84.7,64.6,30.03,North,0,0.0,0.0,51,0.00,,SCT120,0.00,VWS V14.01,2013-07-28 13:17:00,
2013-07-28 09:22:00,85.3,65.1,30.03,North,0,0.0,0.0,51,0.00,,SCT120,0.00,VWS V14.01,2013-07-28 13:22:00,
2013-07-28 09:27:00,85.8,63.3,30.03,North,0,0.0,0.0,47,0.00,,SCT120,0.00,VWS V14.01,2013-07-28 13:27:00,
2013-07-28 09:32:00,85.3,61.6,30.03,North,0,0.0,0.0,45,0.00,,SCT120,0.00,VWS V14.01,2013-07-28 13:32:00,
2013-07-28 09:37:00,86.0,62.2,30.03,North,0,0.0,0.0,45,0.00,,SCT120,0.00,VWS V14.01,2013-07-28 13:37:00,
2013-07-28 09:42:00,86.7,61.6,30.03,North,0,0.0,0.0,43,0.00,,SCT120,0.00,VWS V14.01,2013-07-28 13:42:00,
2013-07-28 09:47:00,86.7,61.6,30.03,North,0,0.0,0.0,43,0.00,,SCT120,0.00,VWS V14.01,2013-07-28 13:47:00,
2013-07-28 09:52:00,85.6,61.2,30.03,North,0,0.0,0.0,44,0.00,,SCT120,0.00,VWS V14.01,2013-07-28 13:52:00,
2013-07-28 09:57:00,84.9,61.2,30.03,North,0,0.0,0.0,45,0.00,,SCT120,0.00,VWS V14.01,2013-07-28 13:57:00,
2013-07-28 10:02:00,85.6,62.5,30.03,North,0,0.0,0.0,46,0.00,,SCT120,0.00,VWS V14.01,2013-07-28 14:02:00,
2013-07-28 10:07:00,86.2,59.7,30.03,North,0,0.0,0.0,41,0.00,,SCT120,0.00,VWS V14.01,2013-07-28 14:07:00,
2013-07-28 10:12:00,86.0,59.6,30.03,North,0,0.0,0.0,41,0.00,,SCT120,0.00,VWS V14.01,2013-07-28 14:12:00,
2013-07-28 10:17:00,86.0,60.3,30.03,North,0,0.0,0.0,42,0.00,,SCT120,0.00,VWS V14.01,2013-07-28 14:17:00,
2013-07-28 10:22:00,85.8,59.4,30.03,North,0,0.0,0.0,41,0.00,,SCT120,0.00,VWS V14.01,2013-07-28 14:22:00,
2013-07-28 10:27:00,86.5,57.2,30.03,North,0,0.0,0.0,37,0.00,,SCT120,0.00,VWS V14.01,2013-07-28 14:27:00,
2013-07-28 10:32:00,87.6,57.4,30.03,North,0,0.0,0.0,36,0.00,,SCT120,0.00,VWS V14.01,2013-07-28 14:32:00,
2013-07-28 10:37:00,88.5,53.2,30.03,North,0,0.0,0.0,30,0.00,,SCT120,0.00,VWS V14.01,2013-07-28 14:37:00,
2013-07-28 10:42:00,88.9,53.5,30.03,North,0,0.0,0.0,30,0.00,,SCT120,0.00,VWS V14.01,2013-07-28 14:42:00,
2013-07-28 10:47:00,87.4,54.0,30.03,North,0,0.0,0.0,32,0.00,,SCT120,0.00,VWS V14.01,2013-07-28 14:47:00,
2013-07-28 10:52:00,86.2,58.3,30.03,North,0,0.0,0.0,39,0.00,,SCT120,0.00,VWS V14.01,2013-07-28 14:52:00,
2013-07-28 10:57:00,86.4,59.2,30.03,North,0,0.0,0.0,40,0.00,,SCT120,0.00,VWS V14.01,2013-07-28 14:57:00,
2013-07-28 11:02:00,85.8,60.1,30.03,North,0,0.0,0.0,42,0.00,,SCT120,0.00,VWS V14.01,2013-07-28 15:02:00,
2013-07-28 11:07:00,87.3,57.8,30.03,North,0,0.0,0.0,37,0.00,,SCT120,0.00,VWS V14.01,2013-07-28 15:07:00,
2013-07-28 11:12:00,87.4,58.7,30.03,North,0,0.0,0.0,38,0.00,,SCT120,0.00,VWS V14.01,2013-07-28 15:12:00,
2013-07-28 11:18:00,87.3,57.1,30.03,North,0,0.0,0.0,36,0.00,,SCT120,0.00,VWS V14.01,2013-07-28 15:18:00,
2013-07-28 11:23:00,86.9,57.5,30.03,North,0,0.0,0.0,37,0.00,,SCT120,0.00,VWS V14.01,2013-07-28 15:23:00,
2013-07-28 11:28:00,86.5,57.9,30.03,North,0,0.0,0.0,38,0.00,,SCT120,0.00,VWS V14.01,2013-07-28 15:28:00,
2013-07-28 11:33:00,86.4,58.5,30.03,North,0,0.0,0.0,39,0.00,,SCT120,0.00,VWS V14.01,2013-07-28 15:33:00,
2013-07-28 11:38:00,86.5,57.9,30.03,North,0,0.0,0.0,38,0.00,,SCT120,0.00,VWS V14.01,2013-07-28 15:38:00,
2013-07-28 11:43:00,87.1,57.7,30.03,North,0,0.0,0.0,37,0.00,,SCT120,0.00,VWS V14.01,2013-07-28 15:43:00,
2013-07-28 11:48:00,87.8,57.5,30.03,North,0,0.0,0.0,36,0.00,,SCT120,0.00,VWS V14.01,2013-07-28 15:48:00,
2013-07-28 11:53:00,88.2,57.1,30.03,North,0,0.0,0.0,35,0.00,,SCT120,0.00,VWS V14.01,2013-07-28 15:53:00,
2013-07-28 11:58:00,88.2,56.3,30.03,North,0,0.0,0.0,34,0.00,,SCT120,0.00,VWS V14.01,2013-07-28 15:58:00,
2013-07-28 12:03:00,87.6,55.8,30.03,North,0,0.0,0.0,34,0.00,,SCT120,0.00,VWS V14.01,2013-07-28 16:03:00,
2013-07-28 12:08:00,87.1,57.7,30.03,North,0,0.0,0.0,37,0.00,,SCT120,0.00,VWS V14.01,2013-07-28 16:08:00,
2013-07-28 12:13:00,86.9,57.5,30.03,North,0,0.0,0.0,37,0.00,,SCT120,0.00,VWS V14.01,2013-07-28 16:13:00,
2013-07-28 12:18:00,86.7,58.8,30.03,North,0,0.0,0.0,39,0.00,,SCT120,0.00,VWS V14.01,2013-07-28 16:18:00,
2013-07-28 12:23:00,87.1,58.4,30.03,North,0,0.0,0.0,38,0.00,,SCT120,0.00,VWS V14.01,2013-07-28 16:23:00,
2013-07-28 12:28:00,87.6,56.6,30.03,North,0,0.0,0.0,35,0.00,,SCT120,0.00,VWS V14.01,2013-07-28 16:28:00,
2013-07-28 12:33:00,88.0,56.1,30.03,North,0,0.0,0.0,34,0.00,,SCT120,0.00,VWS V14.01,2013-07-28 16:33:00,
2013-07-28 12:38:00,88.5,55.8,30.03,North,0,0.0,0.0,33,0.00,,SCT120,0.00,VWS V14.01,2013-07-28 16:38:00,
2013-07-28 12:43:00,89.2,55.5,30.03,North,0,0.0,0.0,32,0.00,,SCT120,0.00,VWS V14.01,2013-07-28 16:43:00,
2013-07-28 12:48:00,89.8,54.2,30.03,North,0,0.0,0.0,30,0.00,,SCT120,0.00,VWS V14.01,2013-07-28 16:48:00,
2013-07-28 12:53:00,90.1,52.7,30.03,North,0,0.0,0.0,28,0.00,,SCT120,0.00,VWS V14.01,2013-07-28 16:53:00,
2013-07-28 12:58:00,90.9,52.3,30.03,North,0,0.0,0.0,27,0.00,,SCT120,0.00,VWS V14.01,2013-07-28 16:58:00,
2013-07-28 13:03:00,90.1,52.7,30.03,North,0,0.0,0.0,28,0.00,,SCT120,0.00,VWS V14.01,2013-07-28 17:03:00,
2013-07-28 13:08:00,90.0,52.5,30.03,North,0,0.0,0.0,28,0.00,,SCT120,0.00,VWS V14.01,2013-07-28 17:08:00,
2013-07-28 13:13:00,90.1,52.7,30.00,North,0,0.0,0.0,28,0.00,,SCT120,0.00,VWS V14.01,2013-07-28 17:13:00,
2013-07-28 13:18:00,90.1,52.7,30.00,North,0,0.0,0.0,28,0.00,,SCT120,0.00,VWS V14.01,2013-07-28 17:18:00,
2013-07-28 13:23:00,89.8,52.4,30.00,North,0,0.0,0.0,28,0.00,,SCT120,0.00,VWS V14.01,2013-07-28 17:23:00,
2013-07-28 13:28:00,90.0,52.5,30.00,North,0,0.0,0.0,28,0.00,,SCT120,0.00,VWS V14.01,2013-07-28 17:28:00,
2013-07-28 13:33:00,89.1,51.8,30.00,North,0,0.0,0.0,28,0.00,,SCT120,0.00,VWS V14.01,2013-07-28 17:33:00,
2013-07-28 13:38:00,88.7,52.4,30.00,North,0,0.0,0.0,29,0.00,,SCT120,0.00,VWS V14.01,2013-07-28 17:38:00,
2013-07-28 13:43:00,87.4,52.2,30.00,North,0,0.0,0.0,30,0.00,,SCT120,0.00,VWS V14.01,2013-07-28 17:43:00,
2013-07-28 13:48:00,87.1,51.9,30.00,North,0,0.0,0.0,30,0.00,,SCT120,0.00,VWS V14.01,2013-07-28 17:48:00,
2013-07-28 13:53:00,87.1,52.8,30.00,North,0,0.0,0.0,31,0.00,,SCT120,0.00,VWS V14.01,2013-07-28 17:53:00,
2013-07-28 13:58:00,86.5,53.2,30.00,North,0,0.0,0.0,32,0.00,,SCT120,0.00,VWS V14.01,2013-07-28 17:58:00,
2013-07-28 14:03:00,86.0,53.6,30.00,North,0,0.0,0.0,33,0.00,,SCT120,0.00,VWS V14.01,2013-07-28 18:03:00,
2013-07-28 14:08:00,86.7,54.2,30.00,North,0,0.0,0.0,33,0.00,,SCT120,0.00,VWS V14.01,2013-07-28 18:08:00,
2013-07-28 14:13:00,87.4,55.7,30.00,North,0,0.0,0.0,34,0.00,,SCT120,0.00,VWS V14.01,2013-07-28 18:13:00,
2013-07-28 14:18:00,87.8,53.4,30.00,North,0,0.0,0.0,31,0.00,,SCT120,0.00,VWS V14.01,2013-07-28 18:18:00,
2013-07-28 14:23:00,86.5,53.2,30.00,North,0,0.0,0.0,32,0.00,,SCT120,0.00,VWS V14.01,2013-07-28 18:23:00,
2013-07-28 14:28:00,86.5,54.9,29.97,North,0,0.0,0.0,34,0.00,,SCT120,0.00,VWS V14.01,2013-07-28 18:28:00,
2013-07-28 14:33:00,86.5,54.9,29.97,North,0,0.0,0.0,34,0.00,,SCT120,0.00,VWS V14.01,2013-07-28 18:33:00,
2013-07-28 14:38:00,86.9,56.0,29.97,North,0,0.0,0.0,35,0.00,,SCT120,0.00,VWS V14.01,2013-07-28 18:38:00,
2013-07-28 14:43:00,86.9,60.4,30.00,North,0,0.0,0.0,41,0.00,,SCT120,0.00,VWS V14.01,2013-07-28 18:43:00,
2013-07-28 14:48:00,85.6,65.4,30.00,North,0,0.0,0.0,51,0.00,,SCT120,0.00,VWS V14.01,2013-07-28 18:48:00,
2013-07-28 14:53:00,84.9,69.0,30.00,North,0,0.0,0.0,59,0.00,,SCT120,0.00,VWS V14.01,2013-07-28 18:53:00,
2013-07-28 14:58:00,84.4,67.0,29.97,North,0,0.0,0.0,56,0.00,,SCT120,0.00,VWS V14.01,2013-07-28 18:58:00,
2013-07-28 15:03:00,83.7,69.7,29.97,North,0,0.0,0.0,63,0.08,,SCT120,0.08,VWS V14.01,2013-07-28 19:03:00,
2013-07-28 15:08:00,82.9,67.2,29.97,North,0,0.0,0.0,59,0.12,,SCT120,0.12,VWS V14.01,2013-07-28 19:08:00,
2013-07-28 15:13:00,82.8,67.9,30.00,North,0,0.0,0.0,61,0.16,,SCT120,0.16,VWS V14.01,2013-07-28 19:13:00,
2013-07-28 15:18:00,82.9,68.1,30.00,North,0,0.0,0.0,61,0.16,,SCT120,0.16,VWS V14.01,2013-07-28 19:18:00,
2013-07-28 15:23:00,82.6,67.8,30.00,North,0,0.0,0.0,61,0.16,,SCT120,0.16,VWS V14.01,2013-07-28 19:23:00,
2013-07-28 15:28:00,82.6,68.7,30.00,North,0,0.0,0.0,63,0.16,,SCT120,0.16,VWS V14.01,2013-07-28 19:28:00,
2013-07-28 15:33:00,82.4,67.6,30.00,North,0,0.0,0.0,61,0.16,,SCT120,0.16,VWS V14.01,2013-07-28 19:33:00,
2013-07-28 15:38:00,82.6,67.8,30.00,North,0,0.0,0.0,61,0.16,,SCT120,0.16,VWS V14.01,2013-07-28 19:38:00,
2013-07-28 15:43:00,83.1,69.7,30.00,North,0,0.0,0.0,64,0.16,,SCT120,0.16,VWS V14.01,2013-07-28 19:43:00,
2013-07-28 15:48:00,82.9,67.2,30.00,North,0,0.0,0.0,59,0.16,,SCT120,0.16,VWS V14.01,2013-07-28 19:48:00,
2013-07-28 15:53:00,82.8,67.5,30.00,North,0,0.0,0.0,60,0.16,,SCT120,0.16,VWS V14.01,2013-07-28 19:53:00,
2013-07-28 15:58:00,83.5,69.6,29.97,North,0,0.0,0.0,63,0.16,,SCT120,0.16,VWS V14.01,2013-07-28 19:58:00,
2013-07-28 16:03:00,83.8,70.4,29.97,North,0,0.0,0.0,64,0.16,,SCT120,0.16,VWS V14.01,2013-07-28 20:03:00,
2013-07-28 16:08:00,84.0,70.1,29.97,North,0,0.0,0.0,63,0.16,,SCT120,0.16,VWS V14.01,2013-07-28 20:08:00,
2013-07-28 16:13:00,85.1,71.6,29.97,North,0,0.0,0.0,64,0.16,,SCT120,0.16,VWS V14.01,2013-07-28 20:13:00,
2013-07-28 16:18:00,86.2,72.1,29.97,North,0,0.0,0.0,63,0.16,,SCT120,0.16,VWS V14.01,2013-07-28 20:18:00,
2013-07-28 16:23:00,87.4,69.8,29.97,North,0,0.0,0.0,56,0.00,,SCT120,0.16,VWS V14.01,2013-07-28 20:23:00,
2013-07-28 16:28:00,88.0,65.2,29.97,North,0,0.0,0.0,47,0.00,,SCT120,0.16,VWS V14.01,2013-07-28 20:28:00,
2013-07-28 16:33:00,88.2,67.8,29.97,North,0,0.0,0.0,51,0.00,,SCT120,0.16,VWS V14.01,2013-07-28 20:33:00,
2013-07-28 16:38:00,87.1,67.9,29.97,North,0,0.0,0.0,53,0.04,,SCT120,0.20,VWS V14.01,2013-07-28 20:38:00,
2013-07-28 16:43:00,86.2,69.2,29.97,North,0,0.0,0.0,57,0.16,,SCT120,0.31,VWS V14.01,2013-07-28 20:43:00,
2013-07-28 16:48:00,84.6,67.7,29.97,North,0,0.0,0.0,57,0.20,,SCT120,0.35,VWS V14.01,2013-07-28 20:48:00,
2013-07-28 16:53:00,84.2,67.8,29.97,North,0,0.0,0.0,58,0.20,,SCT120,0.35,VWS V14.01,2013-07-28 20:53:00,
2013-07-28 16:58:00,84.0,69.1,29.97,North,0,0.0,0.0,61,0.20,,SCT120,0.35,VWS V14.01,2013-07-28 20:58:00,
2013-07-28 17:03:00,84.2,70.2,29.97,North,0,0.0,0.0,63,0.20,,SCT120,0.35,VWS V14.01,2013-07-28 21:03:00,
2013-07-28 17:08:00,84.2,70.7,29.97,North,0,0.0,0.0,64,0.20,,SCT120,0.35,VWS V14.01,2013-07-28 21:08:00,
2013-07-28 17:13:00,84.2,71.6,29.97,North,0,0.0,0.0,66,0.20,,SCT120,0.35,VWS V14.01,2013-07-28 21:13:00,
2013-07-28 17:18:00,84.0,71.9,29.97,North,0,0.0,0.0,67,0.20,,SCT120,0.35,VWS V14.01,2013-07-28 21:18:00,
2013-07-28 17:23:00,83.8,72.2,29.97,North,0,0.0,0.0,68,0.20,,SCT120,0.35,VWS V14.01,2013-07-28 21:23:00,
2013-07-28 17:28:00,83.7,72.0,29.97,North,0,0.0,0.0,68,0.20,,SCT120,0.35,VWS V14.01,2013-07-28 21:28:00,
2013-07-28 17:33:00,83.5,71.4,29.97,North,0,0.0,0.0,67,0.20,,SCT120,0.35,VWS V14.01,2013-07-28 21:33:00,
2013-07-28 17:38:00,83.7,72.0,29.97,North,0,0.0,0.0,68,0.20,,SCT120,0.35,VWS V14.01,2013-07-28 21:38:00,
2013-07-28 17:43:00,83.5,71.8,29.97,North,0,0.0,0.0,68,0.16,,SCT120,0.35,VWS V14.01,2013-07-28 21:43:00,
2013-07-28 17:48:00,83.7,72.4,29.97,North,0,0.0,0.0,69,0.16,,SCT120,0.35,VWS V14.01,2013-07-28 21:48:00,
2013-07-28 17:53:00,83.7,72.4,29.97,North,0,0.0,0.0,69,0.16,,SCT120,0.35,VWS V14.01,2013-07-28 21:53:00,
2013-07-28 17:58:00,83.5,71.8,29.97,North,0,0.0,0.0,68,0.16,,SCT120,0.35,VWS V14.01,2013-07-28 21:58:00,
2013-07-28 18:03:00,83.5,72.2,29.97,North,0,0.0,0.0,69,0.00,,SCT120,0.35,VWS V14.01,2013-07-28 22:03:00,
2013-07-28 18:08:00,83.3,72.1,29.97,North,0,0.0,0.0,69,0.00,,SCT120,0.35,VWS V14.01,2013-07-28 22:08:00,
2013-07-28 18:13:00,83.1,71.9,29.97,North,0,0.0,0.0,69,0.00,,SCT120,0.35,VWS V14.01,2013-07-28 22:13:00,
2013-07-28 18:18:00,83.1,72.3,29.97,North,0,0.0,0.0,70,0.00,,SCT120,0.35,VWS V14.01,2013-07-28 22:18:00,
2013-07-28 18:23:00,82.9,72.2,29.97,North,0,0.0,0.0,70,0.00,,SCT120,0.35,VWS V14.01,2013-07-28 22:23:00,
2013-07-28 18:28:00,82.9,72.6,29.97,North,0,0.0,0.0,71,0.00,,SCT120,0.35,VWS V14.01,2013-07-28 22:28:00,
2013-07-28 18:33:00,82.6,72.2,29.97,North,0,0.0,0.0,71,0.00,,SCT120,0.35,VWS V14.01,2013-07-28 22:33:00,
2013-07-28 18:38:00,82.4,72.1,29.97,North,0,0.0,0.0,71,0.00,,SCT120,0.35,VWS V14.01,2013-07-28 22:38:00,
2013-07-28 18:43:00,82.2,72.3,29.97,North,0,0.0,0.0,72,0.00,,SCT120,0.35,VWS V14.01,2013-07-28 22:43:00,
2013-07-28 18:48:00,82.0,72.1,29.97,North,0,0.0,0.0,72,0.00,,SCT120,0.35,VWS V14.01,2013-07-28 22:48:00,
2013-07-28 18:53:00,81.9,71.9,29.97,North,0,0.0,0.0,72,0.00,,SCT120,0.35,VWS V14.01,2013-07-28 22:53:00,
2013-07-28 18:59:00,81.9,71.9,30.00,North,0,0.0,0.0,72,0.00,,SCT120,1.18,VWS V14.01,2013-07-28 22:59:00,
2013-07-28 19:04:00,81.7,71.8,30.00,North,0,0.0,0.0,72,0.00,,SCT120,0.35,VWS V14.01,2013-07-28 23:04:00,
2013-07-28 19:09:00,81.5,72.0,30.00,North,0,0.0,0.0,73,0.00,,SCT120,0.35,VWS V14.01,2013-07-28 23:09:00,
2013-07-28 19:14:00,81.5,72.0,30.00,North,0,0.0,0.0,73,0.00,,SCT120,0.35,VWS V14.01,2013-07-28 23:14:00,
2013-07-28 19:19:00,81.5,72.0,30.00,North,0,0.0,0.0,73,0.00,,SCT120,0.35,VWS V14.01,2013-07-28 23:19:00,
2013-07-28 19:24:00,81.5,72.0,30.00,North,0,0.0,0.0,73,0.00,,SCT120,0.35,VWS V14.01,2013-07-28 23:24:00,
2013-07-28 19:29:00,81.5,72.0,30.00,North,0,0.0,0.0,73,0.00,,SCT120,0.35,VWS V14.01,2013-07-28 23:29:00,
2013-07-28 19:34:00,81.5,72.0,30.00,North,0,0.0,0.0,73,0.00,,SCT120,0.35,VWS V14.01,2013-07-28 23:34:00,
2013-07-28 19:39:00,81.3,72.2,30.00,North,0,0.0,0.0,74,0.00,,SCT120,0.35,VWS V14.01,2013-07-28 23:39:00,
2013-07-28 19:44:00,81.1,71.7,30.00,North,0,0.0,0.0,73,0.00,,SCT120,0.35,VWS V14.01,2013-07-28 23:44:00,
2013-07-28 19:49:00,81.0,71.9,30.00,North,0,0.0,0.0,74,0.00,,SCT120,0.35,VWS V14.01,2013-07-28 23:49:00,
2013-07-28 19:54:00,80.8,71.7,30.00,North,0,0.0,0.0,74,0.00,,SCT120,0.35,VWS V14.01,2013-07-28 23:54:00,
2013-07-28 19:59:00,80.8,71.7,30.00,North,0,0.0,0.0,74,0.00,,SCT120,0.35,VWS V14.01,2013-07-28 23:59:00,
2013-07-28 20:04:00,80.8,72.1,30.00,North,0,0.0,0.0,75,0.00,,SCT120,0.35,VWS V14.01,2013-07-29 00:04:00,
2013-07-28 20:09:00,80.8,72.1,30.00,North,0,0.0,0.0,75,0.00,,SCT120,0.35,VWS V14.01,2013-07-29 00:09:00,
2013-07-28 20:14:00,80.6,71.9,30.00,North,0,0.0,0.0,75,0.00,,SCT120,0.35,VWS V14.01,2013-07-29 00:14:00,
2013-07-28 20:19:00,80.4,71.8,30.00,North,0,0.0,0.0,75,0.00,,SCT120,0.35,VWS V14.01,2013-07-29 00:19:00,
2013-07-28 20:24:00,80.2,71.6,30.00,North,0,0.0,0.0,75,0.00,,SCT120,0.35,VWS V14.01,2013-07-29 00:24:00,
2013-07-28 20:29:00,80.2,71.6,30.00,North,0,0.0,0.0,75,0.00,,SCT120,0.35,VWS V14.01,2013-07-29 00:29:00,
2013-07-28 20:34:00,79.9,71.2,30.00,North,0,0.0,0.0,75,0.00,,SCT120,0.35,VWS V14.01,2013-07-29 00:34:00,
2013-07-28 20:39:00,79.7,71.1,30.00,North,0,0.0,0.0,75,0.00,,SCT120,0.35,VWS V14.01,2013-07-29 00:39:00,
2013-07-28 20:44:00,79.7,71.5,30.00,North,0,0.0,0.0,76,0.00,,SCT120,0.35,VWS V14.01,2013-07-29 00:44:00,
2013-07-28 20:49:00,79.9,71.6,30.00,North,0,0.0,0.0,76,0.00,,SCT120,0.35,VWS V14.01,2013-07-29 00:49:00,
2013-07-28 20:54:00,79.7,71.9,30.00,North,0,0.0,0.0,77,0.00,,SCT120,0.35,VWS V14.01,2013-07-29 00:54:00,
2013-07-28 20:59:00,79.7,71.5,30.03,North,0,0.0,0.0,76,0.00,,SCT120,0.35,VWS V14.01,2013-07-29 00:59:00,
2013-07-28 21:04:00,79.7,71.9,30.03,North,0,0.0,0.0,77,0.00,,SCT120,0.35,VWS V14.01,2013-07-29 01:04:00,
2013-07-28 21:09:00,79.7,71.9,30.03,North,0,0.0,0.0,77,0.00,,SCT120,0.35,VWS V14.01,2013-07-29 01:09:00,
2013-07-28 21:14:00,79.7,71.9,30.00,North,0,0.0,0.0,77,0.00,,SCT120,0.35,VWS V14.01,2013-07-29 01:14:00,
2013-07-28 21:19:00,79.7,71.9,30.00,North,0,0.0,0.0,77,0.00,,SCT120,0.35,VWS V14.01,2013-07-29 01:19:00,
2013-07-28 21:24:00,79.3,71.5,30.00,North,0,0.0,0.0,77,0.00,,SCT120,0.35,VWS V14.01,2013-07-29 01:24:00,
2013-07-28 21:29:00,79.3,71.5,30.00,North,0,0.0,0.0,77,0.00,,SCT120,0.35,VWS V14.01,2013-07-29 01:29:00,
2013-07-28 21:34:00,79.5,71.7,30.00,North,0,0.0,0.0,77,0.00,,SCT120,0.35,VWS V14.01,2013-07-29 01:34:00,
2013-07-28 21:39:00,79.5,71.7,30.00,North,0,0.0,0.0,77,0.00,,SCT120,0.35,VWS V14.01,2013-07-29 01:39:00,
2013-07-28 21:44:00,79.3,71.5,30.00,North,0,0.0,0.0,77,0.00,,SCT120,0.35,VWS V14.01,2013-07-29 01:44:00,
2013-07-28 21:49:00,79.2,71.3,30.00,North,0,0.0,0.0,77,0.00,,SCT120,0.35,VWS V14.01,2013-07-29 01:49:00,
2013-07-28 21:54:00,79.0,71.2,30.00,North,0,0.0,0.0,77,0.00,,SCT120,0.35,VWS V14.01,2013-07-29 01:54:00,
2013-07-28 21:59:00,79.0,71.2,30.03,North,0,0.0,0.0,77,0.00,,SCT120,0.35,VWS V14.01,2013-07-29 01:59:00,
2013-07-28 22:04:00,78.8,71.0,30.03,North,0,0.0,0.0,77,0.00,,SCT120,0.35,VWS V14.01,2013-07-29 02:04:00,
2013-07-28 22:09:00,78.4,70.6,30.03,North,0,0.0,0.0,77,0.00,,SCT120,0.35,VWS V14.01,2013-07-29 02:09:00,
2013-07-28 22:14:00,78.6,71.2,30.03,North,0,0.0,0.0,78,0.00,,SCT120,0.35,VWS V14.01,2013-07-29 02:14:00,
2013-07-28 22:19:00,78.4,71.0,30.03,North,0,0.0,0.0,78,0.00,,SCT120,0.35,VWS V14.01,2013-07-29 02:19:00,
2013-07-28 22:25:00,78.4,71.0,30.03,North,0,0.0,0.0,78,0.00,,SCT120,0.35,VWS V14.01,2013-07-29 02:25:00,
2013-07-28 22:30:00,78.3,70.8,30.03,North,0,0.0,0.0,78,0.00,,SCT120,0.35,VWS V14.01,2013-07-29 02:30:00,
2013-07-28 22:35:00,78.3,70.8,30.03,North,0,0.0,0.0,78,0.00,,SCT120,0.35,VWS V14.01,2013-07-29 02:35:00,
2013-07-28 22:40:00,78.1,71.0,30.03,North,0,0.0,0.0,79,0.00,,SCT120,0.35,VWS V14.01,2013-07-29 02:40:00,
2013-07-28 22:45:00,78.1,71.0,30.03,North,0,0.0,0.0,79,0.00,,SCT120,0.35,VWS V14.01,2013-07-29 02:45:00,
2013-07-28 22:50:00,78.1,71.0,30.03,North,0,0.0,0.0,79,0.00,,SCT120,0.35,VWS V14.01,2013-07-29 02:50:00,
2013-07-28 22:55:00,78.3,71.6,30.03,North,0,0.0,0.0,80,0.00,,SCT120,0.35,VWS V14.01,2013-07-29 02:55:00,
2013-07-28 23:00:00,78.4,71.8,30.03,North,0,0.0,0.0,80,0.00,,SCT120,0.35,VWS V14.01,2013-07-29 03:00:00,
2013-07-28 23:06:00,78.3,71.6,30.03,North,0,0.0,0.0,80,0.00,,SCT120,0.35,VWS V14.01,2013-07-29 03:06:00,
2013-07-28 23:11:00,78.3,71.6,30.03,North,0,0.0,0.0,80,0.00,,SCT120,0.35,VWS V14.01,2013-07-29 03:11:00,
2013-07-28 23:16:00,78.3,71.6,30.03,North,0,0.0,0.0,80,0.00,,SCT120,0.35,VWS V14.01,2013-07-29 03:16:00,
2013-07-28 23:21:00,78.3,71.6,30.03,North,0,0.0,0.0,80,0.00,,SCT120,0.35,VWS V14.01,2013-07-29 03:21:00,
2013-07-28 23:26:00,77.9,71.2,30.03,North,0,0.0,0.0,80,0.00,,SCT120,0.35,VWS V14.01,2013-07-29 03:26:00,
2013-07-28 23:31:00,77.7,70.7,30.03,North,0,0.0,0.0,79,0.00,,SCT120,0.35,VWS V14.01,2013-07-29 03:31:00,
2013-07-28 23:36:00,77.5,70.5,30.03,North,0,0.0,0.0,79,0.00,,SCT120,0.35,VWS V14.01,2013-07-29 03:36:00,
2013-07-28 23:41:00,77.5,70.9,30.03,North,0,0.0,0.0,80,0.00,,SCT120,0.35,VWS V14.01,2013-07-29 03:41:00,
2013-07-28 23:47:00,77.4,70.3,30.03,North,0,0.0,0.0,79,0.00,,SCT120,0.35,VWS V14.01,2013-07-29 03:47:00,
2013-07-28 23:52:00,77.4,70.7,30.03,North,0,0.0,0.0,80,0.00,,SCT120,0.35,VWS V14.01,2013-07-29 03:52:00,
2013-07-28 23:57:00,77.2,70.5,30.03,North,0,0.0,0.0,80,0.00,,SCT120,0.35,VWS V14.01,2013-07-29 03:57:00,